Location: Austin
(30.3000°N, 97.7500°W)
Time: 01:20:49
(UTC-05:00)

PAYLOAD B - Pass Details

Date: 15 May 2024
Orbit: 848 x 870 km, 99.1° (Epoch: 19 May)

Event Time Altitude Azimuth Distance (km) Brightness Sun altitude
Exits shadow 21:13:48 - 169° (S) 3,336 6.9 -11.5°
Reaches altitude 10° 21:15:55 10° 171° (S) 2,504 6.3 -11.9°
Maximum altitude 21:21:29 77° 257° (WSW) 893 4.4 -12.9°
Drops below altitude 10° 21:27:06 10° 344° (NNW) 2,519 7.4 -13.9°
Sets 21:29:29 0° 345° (NNW) 3,459 8.2 -14.4°
